Location: Albert Place
(40.7505°N, 111.9230°W)
Time: 13:16:14
(UTC+00:00)

Orbus 7S? - Pass Details

Date: 13 December 2025
Orbit: 354 x 6170 km, 56.9° (Epoch: 30 September)

Event Time Altitude Azimuth Distance (km) Brightness Sun altitude
Exits shadow 13:46:07 14° 324° (NW) 1,143 4.4 -10.6°
Maximum altitude 13:48:17 61° 44° (NE) 437 2.9 -10.2°
Drops below altitude 10° 13:51:35 10° 127° (SE) 1,705 7.3 -9.6°
Sets 13:54:21 0° 131° (SE) 3,014 8.7 -9.2°
